NOAA 16 DEB, 41344

Orbit data source: Space-Track

NOAA 16 DEB, 41344 is space debris in SSO originally from a launch on Thu, 21 Sep 2000 UTC launched from the Air Force Western Test Range (AFWTR). Debris objects in space refer to the collection of defunct objects orbiting the Earth. Examples of debris include non-operational satellites, rocket bodies, and fragments generated from explosions, collisions, or faulty payload assembly.

Loading next visibility...
Identifier
41344, 2000-055HM
Orbit
SSO
Country
Flag of USUS
Related business
Manufacturer
Unknown
Mission
Spacecraft
Bus & Motor
Unknown
Mass
Unknown
Launch date (UTC)
2000-09-21 (25 years ago)
Launch vehicle
Unknown
Launch site
Air Force Western Test Range (AFWTR)
Object type
Payload
Rocket body
Debris
Shape & HBR
Unknown shape, 0.1 m
Radar Cross Section
Small (<0.1 m²)

Expand to show TLE details & history
Last TLE update: 6 hours ago

TLE from 6 hours ago
0 NOAA 16 DEB
1 41344U 00055HM  26038.45185909  .00008665  00000-0  24645-2 0  9994
2 41344  99.0681 276.2746 0022259 180.0471 180.0720 14.45440048521758
Epoch: 2026-02-07T10:50Z
TLE epoch observation values (Epoch: 2026-02-07T10:50:40.625Z)
Latitude
-0.00001°
Longitude
-23.96985°
Altitude
759.367 km
Speed
7.466 km/s
True Right ascension
18h 25m 05s
True Declination
0° 00' 00"
Sunlit
Object was in daylight at epoch
Visualization orbit readout
Latitude
Unknown
Longitude
Unknown
Altitude
Unknown
Speed
Unknown
Apparent Right ascension
Unknown
Apparent Declination
Unknown
Sunlit
N/A
Visualization observer readout
Local Sidereal Time
19:08:40
Azimuth
Unknown
Elevation
Unknown
Doppler factor
Unknown
Orbital elements
Apogee altitude
753.563 km
Perigee altitude
721.884 km
Semi-major axis
7,115.86 km
Eccentricity
0.00223
Inclination
99.0681°
RAAN
276.2746°
Arg. of periapsis
180.0471°
True anomaly
180.07168°
Mean anomaly
180.072°
Eccentric anomaly
180.07184°
Mean motion
3.61578 °/min
Orbital period
99.56 mins
BSTAR
0.0024645
Loading maneuver chart data...
Computing Atmospheric mass density...
Loading historical data...
Loading historical data...
Loading historical data...
Loading historical data...
Loading historical data...
Loading historical data...
Loading historical data...

Documentation

Showing up to 5 results
|